time_stamp(utc),avg(mph),gust(mph),direction(deg),12m_air_temp(f),sonic_u(cm/s),sonic_v(cm/s),sonic_w(cm/s),pressure,2m_air_temp(f),pyranometer(W/m^2)
"2017-10-17 00:02:42+00",10.6,11.6,,52.7,-155,437,16,1019.73,52,0
"2017-10-17 00:07:42+00",8.6,10.6,,52.6,-115,356,22,1019.93,51.8,0
"2017-10-17 00:12:42+00",9.2,11.2,,52.5,-163,381,22,1020.04,51.7,0
"2017-10-17 00:17:42+00",10.0,13.0,,52.3,-132,403,18,1020.13,51.6,0
"2017-10-17 00:22:42+00",9.8,10.8,,52,-98,420,8,1020.15,51.4,0
"2017-10-17 00:27:42+00",9.8,11.8,,51.7,-123,417,17,1020.1,51.1,0
"2017-10-17 00:32:42+00",9.2,11.2,,51.3,-116,389,27,1020.22,50.8,0
"2017-10-17 00:37:42+00",10.2,13.2,,51.3,-101,433,19,1020.2,50.6,0
"2017-10-17 00:42:42+00",11.3,15.3,,51.6,-108,478,23,1020.31,50.5,0
"2017-10-17 00:47:42+00",12.3,14.3,,51.9,-101,533,18,1020.45,50.6,0
"2017-10-17 00:52:42+00",12.5,14.5,,51.9,-90,542,16,1020.5,50.6,0
"2017-10-17 00:57:42+00",12.5,14.5,,51.8,-85,545,15,1020.61,50.6,0
"2017-10-17 01:02:42+00",11.7,13.7,,51.7,-112,492,14,1020.74,50.6,0
"2017-10-17 01:07:42+00",11.3,13.3,,51.5,-122,478,23,1020.78,50.5,0
"2017-10-17 01:12:42+00",10.7,11.7,,51.3,-123,450,21,1020.86,50.4,0
"2017-10-17 01:17:42+00",10.8,13.8,,51,-117,461,8,1020.95,50.2,0
"2017-10-17 01:22:42+00",11.2,13.2,,50.9,-119,474,17,1021.08,50,0
"2017-10-17 01:27:42+00",10.6,12.6,,50.9,-58,455,12,1021.14,49.9,0
"2017-10-17 01:32:42+00",10.1,12.1,,50.6,-47,432,15,1021.29,49.6,0
"2017-10-17 01:37:42+00",9.4,10.4,,50.6,-41,407,14,1021.38,49.3,0
"2017-10-17 01:42:42+00",10.2,13.2,,50.6,-13,439,12,1021.28,49.2,0
"2017-10-17 01:47:42+00",10.4,12.4,,50.6,-18,455,11,1021.3,49.1,0
"2017-10-17 01:52:42+00",11.4,12.4,,50.4,10,492,19,1021.34,48.9,0
"2017-10-17 01:57:42+00",13.2,16.2,,50.4,-14,577,6,1021.45,48.9,0
"2017-10-17 02:02:42+00",12.3,14.3,,50.3,-30,536,14,1021.5,48.9,0
"2017-10-17 02:07:42+00",13.5,14.5,,50.1,-61,595,21,1021.5,48.8,0
"2017-10-17 02:12:42+00",12.5,14.5,,50,9,548,10,1021.6,48.8,0
"2017-10-17 02:17:42+00",11.9,15.9,,49.9,-31,523,21,1021.71,48.6,0
"2017-10-17 02:22:42+00",13.0,15.0,,49.7,-49,572,19,1021.73,48.5,0
"2017-10-17 02:27:42+00",12.7,14.7,,49.7,-40,554,27,1021.82,48.4,0
"2017-10-17 02:32:42+00",14.0,16.0,,49.5,-17,603,13,1021.91,48.3,0
"2017-10-17 02:37:42+00",12.9,14.9,,49.3,16,564,8,1021.93,48.1,0
"2017-10-17 02:42:42+00",14.3,17.3,,49.5,38,638,15,1022.1,48.1,0
"2017-10-17 02:47:42+00",16.4,19.4,,49.6,100,698,11,1022.07,48.1,0
"2017-10-17 02:52:42+00",15.4,17.4,,49.4,84,657,0,1022.04,48.1,0
"2017-10-17 02:57:42+00",13.1,14.1,,49.2,33,569,11,1022.05,47.9,0
"2017-10-17 03:02:42+00",14.6,16.6,,49.1,25,638,0,1022.1,47.8,0
"2017-10-17 03:07:42+00",12.8,15.8,,49.1,44,554,10,1022.15,47.7,0
"2017-10-17 03:12:42+00",13.5,16.5,,48.9,42,582,11,1022.23,47.7,0
"2017-10-17 03:17:42+00",12.6,15.6,,48.8,59,548,8,1022.24,47.6,0
"2017-10-17 03:22:42+00",15.5,17.5,,48.6,109,664,0,1022.41,47.4,0
"2017-10-17 03:27:42+00",14.3,16.3,,48.4,31,626,11,1022.38,47.2,0
"2017-10-17 03:32:42+00",14.4,18.4,,48.5,43,626,15,1022.46,47.2,0
"2017-10-17 03:37:42+00",13.5,16.5,,48.4,92,574,5,1022.51,47.2,0
"2017-10-17 03:42:42+00",13.8,15.8,,48.2,119,580,-1,1022.5,47,0
"2017-10-17 03:47:42+00",18.3,22.3,,48.5,106,789,10,1022.52,47.2,0
"2017-10-17 03:52:42+00",14.0,17.0,,48.3,20,615,22,1022.61,47.1,0
"2017-10-17 03:57:42+00",13.5,14.5,,48,48,580,17,1022.72,46.9,0
"2017-10-17 04:02:42+00",13.4,14.4,,48.1,-48,588,15,1022.84,46.9,0
"2017-10-17 04:07:42+00",12.0,16.0,,47.8,-65,524,22,1022.86,46.8,0
"2017-10-17 04:12:42+00",14.9,19.9,,47.7,-22,654,21,1022.94,46.6,0
"2017-10-17 04:17:42+00",16.0,18.0,,47.7,-32,704,24,1022.95,46.5,0
"2017-10-17 04:22:42+00",12.8,14.8,,47.6,-26,558,26,1023,46.5,0
"2017-10-17 04:27:42+00",13.9,16.9,,47.5,24,618,21,1022.98,46.4,0
"2017-10-17 04:32:42+00",16.0,19.0,,47.4,37,701,8,1023.1,46.3,0
"2017-10-17 04:37:42+00",15.5,21.5,,47.3,-12,678,18,1023.05,46.2,0
"2017-10-17 04:42:42+00",13.8,16.8,,47,-12,614,24,1023.13,46.1,0
"2017-10-17 04:47:42+00",14.6,16.6,,46.8,-50,640,25,1023.2,45.8,0
"2017-10-17 04:52:42+00",11.7,13.7,,46.6,-72,506,8,1023.18,45.7,0
"2017-10-17 04:57:42+00",10.4,11.4,,45.9,-120,435,16,1023.17,45.5,0
"2017-10-17 05:02:42+00",10.6,12.6,,45.7,-118,444,9,1023.22,45.1,0
"2017-10-17 05:07:42+00",11.1,12.1,,45.4,-164,455,23,1023.25,44.8,0
"2017-10-17 05:12:42+00",10.0,11.0,,45.2,-157,406,19,1023.3,44.6,0
"2017-10-17 05:17:42+00",10.2,11.2,,44.9,-158,419,15,1023.26,44.3,0
"2017-10-17 05:22:42+00",10.1,11.1,,44.7,-162,416,20,1023.31,44.1,0
"2017-10-17 05:27:42+00",10.9,12.9,,44.7,-201,436,20,1023.32,43.9,0
"2017-10-17 05:32:42+00",12.0,14.0,,44.7,-213,482,13,1023.39,43.9,0
"2017-10-17 05:37:42+00",9.8,12.8,,44.6,-214,377,16,1023.3,43.9,0
"2017-10-17 05:42:42+00",10.7,13.7,,44.5,-198,427,25,1023.33,43.7,0
"2017-10-17 05:47:42+00",9.8,12.8,,44.5,-149,407,35,1023.28,43.6,0
"2017-10-17 05:52:42+00",13.8,15.8,,44.3,-223,564,15,1023.41,43.4,0
"2017-10-17 05:57:42+00",11.3,14.3,,44.1,-180,453,11,1023.59,43.4,0
"2017-10-17 06:02:42+00",11.7,12.7,,43.9,-196,473,18,1023.49,43.2,0
"2017-10-17 06:07:42+00",13.9,14.9,,43.8,-210,581,15,1023.45,43.1,0
"2017-10-17 06:12:42+00",12.9,14.9,,43.7,-197,531,25,1023.47,42.9,0
"2017-10-17 06:17:42+00",11.7,13.7,,43.6,-203,477,22,1023.48,42.8,0
"2017-10-17 06:22:42+00",10.6,12.6,,43.4,-179,413,37,1023.52,42.7,0
"2017-10-17 06:27:42+00",10.2,12.2,,43.2,-166,419,26,1023.44,42.6,0
"2017-10-17 06:32:42+00",8.0,9.0,,42.8,-153,311,22,1023.34,42.3,0
"2017-10-17 06:37:42+00",9.8,10.8,,42.8,-172,396,30,1023.24,42,0
"2017-10-17 06:42:42+00",14.0,15.0,,43,-161,593,7,1023.41,42,0
"2017-10-17 06:47:42+00",13.9,15.9,,42.9,-221,571,27,1023.4,42,0
"2017-10-17 06:52:42+00",14.4,16.4,,42.9,-204,597,6,1023.46,42,0
"2017-10-17 06:57:42+00",12.8,15.8,,42.8,-216,522,31,1023.45,42,0
"2017-10-17 07:02:42+00",14.9,16.9,,43,-233,617,26,1023.46,42.1,0
"2017-10-17 07:07:42+00",13.7,15.7,,43,-227,544,24,1023.32,42.2,0
"2017-10-17 07:12:42+00",11.3,14.3,,43,-192,462,34,1023.34,42.2,0
"2017-10-17 07:17:42+00",12.5,13.5,,42.8,-144,528,14,1023.33,42.1,0
"2017-10-17 07:22:42+00",12.7,16.7,,42.6,-185,524,28,1023.23,42,0
"2017-10-17 07:27:42+00",12.1,15.1,,42.5,-163,508,18,1023.33,41.9,0
"2017-10-17 07:32:42+00",12.9,15.9,,42.6,-192,531,25,1023.38,41.9,0
"2017-10-17 07:37:42+00",12.7,16.7,,42.6,-203,514,50,1023.39,41.9,0
"2017-10-17 07:42:42+00",13.6,15.6,,42.6,-172,572,17,1023.35,41.9,0
"2017-10-17 07:47:42+00",14.7,17.7,,42.6,-182,612,18,1023.43,41.8,0
"2017-10-17 07:52:42+00",13.7,15.7,,42.5,-191,579,29,1023.46,41.9,0
"2017-10-17 07:57:42+00",14.3,19.3,,42.6,-185,602,34,1023.53,41.8,0
"2017-10-17 08:02:42+00",16.7,18.7,,42.7,-200,708,16,1023.57,41.9,0
"2017-10-17 08:07:42+00",14.5,17.5,,42.5,-184,617,26,1023.62,41.9,0
"2017-10-17 08:12:42+00",13.8,15.8,,42.6,-165,594,28,1023.59,41.9,0
"2017-10-17 08:17:42+00",14.8,18.8,,42.8,-153,640,34,1023.67,42,0
"2017-10-17 08:22:42+00",16.5,18.5,,42.8,-201,706,11,1023.74,42,0
"2017-10-17 08:27:42+00",17.6,21.6,,42.7,-245,742,31,1023.79,42,0
"2017-10-17 08:32:42+00",17.0,19.0,,42.7,-202,726,41,1023.86,42,0
"2017-10-17 08:37:42+00",18.4,21.4,,42.6,-214,789,24,1023.93,42,0
"2017-10-17 08:42:42+00",17.1,20.1,,42.6,-172,731,28,1024.05,42,0
"2017-10-17 08:47:42+00",18.7,21.7,,42.7,-206,803,16,1024.1,42,0
"2017-10-17 08:52:42+00",17.7,20.7,,42.7,-204,748,39,1024.15,42.1,0
"2017-10-17 08:57:42+00",17.7,20.7,,42.7,-201,755,24,1024.18,42,0
"2017-10-17 09:02:42+00",18.3,21.3,,42.7,-146,799,16,1024.24,42,0
"2017-10-17 09:07:42+00",18.9,21.9,,42.6,-143,816,17,1024.28,42,0
"2017-10-17 09:12:42+00",18.7,22.7,,42.6,-141,814,19,1024.38,41.9,0
"2017-10-17 09:17:42+00",14.4,17.4,,42.4,-106,628,29,1024.44,41.8,0
"2017-10-17 09:22:42+00",15.7,19.7,,42.3,-195,660,47,1024.5,41.8,0
"2017-10-17 09:27:42+00",17.6,20.6,,42.2,-151,751,15,1024.56,41.6,0
"2017-10-17 09:32:42+00",18.4,20.4,,42.2,-158,799,16,1024.59,41.5,0
"2017-10-17 09:37:42+00",17.6,18.6,,42,-151,758,20,1024.69,41.5,0
"2017-10-17 09:42:42+00",18.3,20.3,,42,-159,792,18,1024.74,41.4,0
"2017-10-17 09:47:42+00",16.7,19.7,,42.1,-88,729,15,1024.7,41.4,0
"2017-10-17 09:52:42+00",17.0,20.0,,42,-151,726,7,1024.78,41.4,0
"2017-10-17 09:57:42+00",16.1,19.1,,42,-148,695,34,1024.72,41.3,0
"2017-10-17 10:02:42+00",14.4,17.4,,41.9,-104,632,39,1024.83,41.3,0
"2017-10-17 10:07:42+00",17.0,21.0,,41.9,-183,727,34,1024.88,41.3,0
"2017-10-17 10:12:42+00",18.2,20.2,,41.8,-183,782,9,1024.91,41.2,0
"2017-10-17 10:17:42+00",16.8,18.8,,41.9,-150,729,32,1025.02,41.3,0
"2017-10-17 10:22:42+00",14.7,17.7,,41.7,-153,637,43,1025.07,41.2,0
"2017-10-17 10:27:42+00",16.0,18.0,,41.6,-144,689,29,1025.17,41.1,0
"2017-10-17 10:32:42+00",18.1,21.1,,41.6,-206,780,44,1025.16,41,0
"2017-10-17 10:37:42+00",17.1,19.1,,41.5,-143,736,17,1025.23,41,0
"2017-10-17 10:42:42+00",18.3,21.3,,41.4,-164,785,9,1025.24,40.9,0
"2017-10-17 10:47:42+00",17.6,20.6,,41.4,-163,747,14,1025.37,40.9,0
"2017-10-17 10:52:42+00",16.3,19.3,,41.4,-176,700,41,1025.39,40.9,0
"2017-10-17 10:57:42+00",16.6,20.6,,41.3,-188,700,43,1025.42,40.8,0
"2017-10-17 11:02:42+00",18.4,21.4,,41.2,-193,781,7,1025.52,40.8,0
"2017-10-17 11:07:42+00",15.8,19.8,,41.1,-163,675,33,1025.61,40.8,0
"2017-10-17 11:12:42+00",16.3,19.3,,41.1,-169,712,41,1025.64,40.7,0
"2017-10-17 11:17:42+00",17.4,19.4,,41.2,-168,750,18,1025.69,40.8,0
"2017-10-17 11:22:42+00",16.8,19.8,,41.1,-166,725,30,1025.78,40.7,0
"2017-10-17 11:27:42+00",18.1,21.1,,41.1,-194,779,41,1025.81,40.8,0
"2017-10-17 11:32:42+00",17.0,19.0,,41.1,-166,737,28,1025.95,40.8,0
"2017-10-17 11:37:42+00",17.3,20.3,,41.3,-199,734,40,1026.03,41,0
"2017-10-17 11:42:42+00",17.4,22.4,,41.4,-143,746,30,1026.06,41.1,11.7
"2017-10-17 11:47:42+00",17.8,20.8,,41.5,-175,759,11,1026.1,41.3,17.7
"2017-10-17 11:52:42+00",17.1,21.1,,41.7,-187,737,50,1026.14,41.7,24.7
"2017-10-17 11:57:42+00",19.2,22.2,,41.6,-186,822,19,1026.16,42.1,34.3
"2017-10-17 12:02:42+00",18.3,20.3,,41.8,-150,792,13,1026.22,42.5,42.5
"2017-10-17 12:07:42+00",16.2,20.2,,41.9,-162,696,31,1026.25,42.8,53.8
"2017-10-17 12:12:42+00",16.0,17.0,,42.1,-152,685,13,1026.46,43.3,62.9
"2017-10-17 12:17:42+00",16.6,18.6,,42.2,-134,708,13,1026.41,43.6,74.3
"2017-10-17 12:22:42+00",19.1,21.1,,42.4,-185,818,15,1026.48,43.9,83.3
"2017-10-17 12:27:42+00",17.0,20.0,,42.6,-178,730,38,1026.54,44.2,93.8
"2017-10-17 12:32:42+00",18.7,21.7,,42.7,-107,818,26,1026.55,44.5,106.2
"2017-10-17 12:37:42+00",16.5,20.5,,43,-80,713,36,1026.45,44.8,115.4
"2017-10-17 12:42:42+00",17.6,20.6,,43.3,-48,772,9,1026.44,45.1,124.7
"2017-10-17 12:47:42+00",15.4,17.4,,43.8,-28,686,11,1026.49,45.6,135.1
"2017-10-17 12:52:42+00",14.4,17.4,,43.9,-70,638,14,1026.59,46,145.5
"2017-10-17 12:57:42+00",14.6,17.6,,44.2,-39,644,8,1026.58,46.3,156.2
"2017-10-17 13:02:42+00",14.0,17.0,,44.7,-58,613,21,1026.62,47,165.5
"2017-10-17 13:07:42+00",13.8,18.8,,45.1,-78,600,43,1026.47,47.5,175.2
"2017-10-17 13:12:42+00",16.5,19.5,,45.5,-28,724,17,1026.61,47.9,185
"2017-10-17 13:17:42+00",15.1,17.1,,45.7,-31,664,-2,1026.65,48.2,193
"2017-10-17 13:22:42+00",11.9,13.9,,46.1,2,512,26,1026.52,48.6,201.9
"2017-10-17 13:27:42+00",15.0,17.0,,46.5,117,637,8,1026.5,49,211.2
"2017-10-17 13:32:42+00",17.7,20.7,,46.7,-50,777,16,1026.47,49.1,219.7
"2017-10-17 13:37:42+00",14.8,18.8,,46.9,-10,656,44,1026.55,49.2,227.5
"2017-10-17 13:42:42+00",14.9,17.9,,47.4,-4,653,10,1026.5,49.7,231.5
"2017-10-17 13:47:42+00",16.1,18.1,,47.3,-29,699,15,1026.53,49.6,241.7
"2017-10-17 13:52:42+00",17.4,20.4,,47.7,99,757,21,1026.55,49.8,249
"2017-10-17 13:57:42+00",15.0,18.0,,47.9,126,637,7,1026.54,50,256.1
"2017-10-17 14:02:42+00",13.8,17.8,,48.2,62,598,26,1026.54,50.4,263.5
"2017-10-17 14:07:42+00",14.0,17.0,,48.4,-85,618,23,1026.48,50.9,266.9
"2017-10-17 14:12:42+00",14.6,18.6,,48.5,-45,644,32,1026.5,51.1,271.7
"2017-10-17 14:17:42+00",14.7,17.7,,48.9,-27,646,49,1026.52,51.4,279.9
"2017-10-17 14:22:42+00",13.7,15.7,,48.9,134,568,2,1026.47,51.7,284.8
"2017-10-17 14:27:42+00",14.5,18.5,,49.3,146,593,-12,1026.45,51.9,291.3
"2017-10-17 14:32:42+00",14.7,17.7,,49.6,264,567,-3,1026.4,52.2,295.8
"2017-10-17 14:37:42+00",14.3,17.3,,49.3,253,553,2,1026.43,52,303.7
"2017-10-17 14:42:42+00",13.4,16.4,,49.6,127,553,-16,1026.44,52.3,306
"2017-10-17 14:47:42+00",16.6,20.6,,49.9,413,581,-15,1026.4,52.5,313.1
"2017-10-17 14:52:42+00",15.9,18.9,,50.3,222,644,6,1026.48,53.1,316.4
"2017-10-17 14:57:42+00",17.2,22.2,,50.4,433,579,8,1026.5,53.3,323.5
"2017-10-17 15:02:42+00",14.3,18.3,,50.1,446,412,27,1026.49,53.4,328
"2017-10-17 15:07:42+00",13.2,17.2,,50.5,280,487,-1,1026.54,53.7,336.1
"2017-10-17 15:12:42+00",13.4,15.4,,50.5,220,525,8,1026.5,53.8,338.8
"2017-10-17 15:17:42+00",13.3,17.3,,50.5,309,462,40,1026.45,53.8,343.6
"2017-10-17 15:22:42+00",12.3,17.3,,50.8,16,549,46,1026.49,54.1,345.5
"2017-10-17 15:27:42+00",12.3,16.3,,50.9,81,509,28,1026.49,54.3,351.1
"2017-10-17 15:32:42+00",10.9,14.9,,51.1,164,415,18,1026.47,54.5,355.2
"2017-10-17 15:37:42+00",10.5,12.5,,50.9,288,330,37,1026.49,54.2,358.5
"2017-10-17 15:42:42+00",11.4,14.4,,50.7,334,340,15,1026.4,54.2,362
"2017-10-17 15:47:42+00",8.4,10.4,,50.9,105,337,-22,1026.33,54.3,365
"2017-10-17 15:52:42+00",9.8,13.8,,51.5,174,358,60,1026.14,55,366.3
"2017-10-17 15:57:42+00",10.5,14.5,,51.6,295,321,13,1026.16,55.3,370.5
"2017-10-17 16:02:42+00",6.3,9.3,,51.6,121,215,15,1026.13,55.3,330.3
"2017-10-17 16:07:42+00",10.2,12.2,,52,31,440,-1,1026.11,55.8,353.1
"2017-10-17 16:12:42+00",7.7,9.7,,51.7,-34,332,25,1026.05,55.8,374.9
"2017-10-17 16:17:42+00",8.5,11.5,,51.8,277,211,28,1025.98,56.1,375.6
"2017-10-17 16:22:42+00",11.0,12.0,,51.9,-151,446,9,1025.9,56.4,378.6
"2017-10-17 16:27:42+00",8.9,10.9,,51.9,3,371,-8,1025.96,56.3,381.1
"2017-10-17 16:32:42+00",7.3,9.3,,52,-11,312,4,1025.83,56.5,383.2
"2017-10-17 16:37:42+00",9.2,11.2,,52.4,109,360,18,1025.63,56.7,382.1
"2017-10-17 16:42:42+00",7.2,8.2,,52.4,72,283,-19,1025.61,56.6,384.1
"2017-10-17 16:47:42+00",7.3,9.3,,52.9,113,266,27,1025.41,56.7,383
"2017-10-17 16:52:42+00",6.7,8.7,,53.1,101,219,55,1025.39,57,382.4
"2017-10-17 16:57:42+00",6.0,9.0,,53.4,178,158,29,1025.32,57.4,377.9
"2017-10-17 17:02:42+00",7.9,9.9,,52.8,314,146,9,1025.22,57.1,380.7
"2017-10-17 17:07:42+00",9.8,10.8,,53.3,248,321,-1,1025.12,57.2,379.1
"2017-10-17 17:12:42+00",7.6,8.6,,53.1,222,222,4,1025.11,56.7,377.9
"2017-10-17 17:17:42+00",2.2,3.2,,53.8,35,31,42,1025.06,57.3,370
"2017-10-17 17:22:42+00",6.3,8.3,,53.6,157,190,3,1025.1,57.5,372.2
"2017-10-17 17:27:42+00",7.6,9.6,,53.4,197,250,-33,1025.05,57.5,369.1
"2017-10-17 17:32:42+00",7.4,9.4,,54.1,195,223,43,1025.1,57.8,365
"2017-10-17 17:37:42+00",6.1,7.1,,54.5,127,205,9,1024.96,57.7,364.1
"2017-10-17 17:42:42+00",4.3,6.3,,54.5,134,66,49,1025,58,356
"2017-10-17 17:47:42+00",7.1,9.1,,54.4,269,141,1,1025,58.3,353.1
"2017-10-17 17:52:42+00",4.7,5.7,,54.4,192,34,9,1025.04,58.4,348.3
"2017-10-17 17:57:42+00",8.0,10.0,,54.8,212,238,18,1024.97,58.4,345.9
"2017-10-17 18:02:42+00",4.7,8.7,,54.9,163,44,50,1025.01,58.5,338.8
"2017-10-17 18:07:42+00",5.1,8.1,,54.4,195,-42,20,1024.88,58.5,330.7
"2017-10-17 18:12:42+00",6.1,7.1,,54.2,242,-37,44,1024.81,58.1,324.2
"2017-10-17 18:17:42+00",5.6,7.6,,54.7,185,-143,23,1024.86,58.2,317.1
"2017-10-17 18:22:42+00",8.4,9.4,,54.1,179,-318,-11,1024.96,57.3,310
"2017-10-17 18:27:42+00",7.4,8.4,,53.8,160,-267,-24,1024.99,56.8,306.6
"2017-10-17 18:32:42+00",5.5,7.5,,54.1,94,-196,-14,1025,56.8,300
"2017-10-17 18:37:42+00",5.9,7.9,,54.1,203,-161,9,1024.93,57,300
"2017-10-17 18:42:42+00",6.9,8.9,,53.9,199,-215,2,1024.93,57,302.1
"2017-10-17 18:47:42+00",4.9,7.9,,54.4,152,-84,29,1025,57.3,306.9
"2017-10-17 18:52:42+00",7.3,10.3,,54.1,247,-187,16,1024.93,57.6,295.5
"2017-10-17 18:57:42+00",7.3,9.3,,53.9,266,-168,2,1024.93,57.4,287.6
"2017-10-17 19:02:42+00",7.6,9.6,,54,282,-168,4,1024.87,57.2,274.2
"2017-10-17 19:07:42+00",8.0,9.0,,53.7,332,-89,-7,1024.81,56.9,274.3
"2017-10-17 19:12:42+00",8.4,9.4,,53.8,260,-253,13,1024.79,56.8,266.8
"2017-10-17 19:17:42+00",7.7,8.7,,54,276,-183,15,1024.86,56.8,259.6
"2017-10-17 19:22:42+00",6.2,7.2,,54,244,-106,-2,1024.9,56.8,255.7
"2017-10-17 19:27:42+00",6.6,7.6,,54,222,-177,6,1024.89,56.9,250.7
"2017-10-17 19:32:42+00",5.8,8.8,,54,227,-96,-5,1024.9,56.7,248.5
"2017-10-17 19:37:42+00",7.1,9.1,,54.1,304,13,33,1024.85,56.8,239
"2017-10-17 19:42:42+00",6.9,8.9,,54.2,281,-94,-7,1024.88,57,233.6
"2017-10-17 19:47:42+00",8.2,9.2,,54.2,287,-209,3,1024.81,56.9,225.5
"2017-10-17 19:52:42+00",6.9,7.9,,54.4,288,-70,36,1024.88,57.1,218.5
"2017-10-17 19:57:42+00",7.1,8.1,,54.4,304,-52,-12,1024.78,56.8,212.2
"2017-10-17 20:02:42+00",6.9,8.9,,54.6,290,-14,52,1024.78,56.9,205.7
"2017-10-17 20:07:42+00",6.2,7.2,,54.6,268,-6,-7,1024.73,57.1,195.2
"2017-10-17 20:12:42+00",6.7,7.7,,54.6,282,-60,8,1024.65,56.9,185.1
"2017-10-17 20:17:42+00",7.0,8.0,,54.5,287,-109,-10,1024.68,56.5,178.6
"2017-10-17 20:22:42+00",5.5,6.5,,55,206,-89,32,1024.68,56.8,171.3
"2017-10-17 20:27:42+00",6.2,8.2,,55.2,193,-172,22,1024.59,56.9,159.7
"2017-10-17 20:32:42+00",6.7,8.7,,54.9,237,-166,33,1024.65,56.7,148.1
"2017-10-17 20:37:42+00",7.2,8.2,,54.7,279,-131,-7,1024.72,56.6,138.5
"2017-10-17 20:42:42+00",6.4,7.4,,54.8,124,-231,-13,1024.74,56.2,130.6
"2017-10-17 20:47:42+00",6.5,7.5,,54.9,55,-267,-23,1024.77,56,119.2
"2017-10-17 20:52:42+00",6.9,8.9,,54.8,105,-269,-11,1024.79,55.9,108
"2017-10-17 20:57:42+00",6.3,7.3,,54.9,74,-265,15,1024.78,55.7,97.9
"2017-10-17 21:02:42+00",6.4,8.4,,55.1,84,-246,7,1024.84,55.7,87.1
"2017-10-17 21:07:42+00",5.9,7.9,,55,90,-234,-9,1024.83,55.6,76.2
"2017-10-17 21:12:42+00",3.5,4.5,,55,-10,-135,20,1024.79,55.3,66.8
"2017-10-17 21:17:42+00",4.0,5.0,,55.3,-15,-151,34,1024.77,55.4,58.7
"2017-10-17 21:22:42+00",5.3,6.3,,55.2,77,-199,-2,1024.69,55.3,46.7
"2017-10-17 21:27:42+00",5.0,6.0,,55.1,89,-194,6,1024.73,55.1,17.1
"2017-10-17 21:32:42+00",4.3,6.3,,55.1,-47,-167,13,1024.8,54.9,1.2
"2017-10-17 21:37:42+00",4.4,4.4,,55,51,-172,-8,1024.8,54.8,0
"2017-10-17 21:42:42+00",5.3,6.3,,54.9,-41,-221,5,1024.74,54.7,0
"2017-10-17 21:47:42+00",4.9,6.9,,54.9,1,-199,-2,1024.9,54.7,0
"2017-10-17 21:52:42+00",7.2,8.2,,54.7,-11,-300,-8,1024.82,54.6,0
"2017-10-17 21:57:42+00",7.5,8.5,,54.6,-77,-302,-7,1024.86,54.3,0
"2017-10-17 22:02:42+00",7.0,8.0,,54.5,-37,-288,-22,1024.82,54.1,0
"2017-10-17 22:07:42+00",6.7,7.7,,54.2,-65,-270,-11,1024.93,53.8,0
"2017-10-17 22:12:42+00",6.4,7.4,,54.1,-86,-256,0,1024.92,53.5,0
"2017-10-17 22:17:42+00",6.6,7.6,,53.9,-74,-269,-6,1024.93,53.2,0
"2017-10-17 22:22:42+00",7.6,8.6,,53.9,-123,-297,-3,1025,52.9,0
"2017-10-17 22:27:42+00",7.0,8.0,,53.8,-86,-281,1,1025.06,52.6,0
"2017-10-17 22:32:42+00",6.9,7.9,,53.7,-78,-278,-1,1025.12,52.5,0
"2017-10-17 22:37:42+00",7.6,8.6,,53.7,-127,-295,-5,1025.1,52.4,0
"2017-10-17 22:42:42+00",7.9,8.9,,53.7,-144,-304,6,1025.18,52.3,0
"2017-10-17 22:47:42+00",6.8,7.8,,53.8,-143,-252,0,1025.14,52.4,0
"2017-10-17 22:52:42+00",8.1,9.1,,53.7,-165,-306,-3,1025.26,52.3,0
"2017-10-17 22:57:42+00",9.1,10.1,,54,-158,-355,-10,1025.3,52.5,0
"2017-10-17 23:02:42+00",8.3,9.3,,54.1,-162,-315,0,1025.38,52.6,0
"2017-10-17 23:07:42+00",7.0,8.0,,54,-155,-263,5,1025.32,52.6,0
"2017-10-17 23:12:42+00",8.3,10.3,,54.1,-201,-310,7,1025.42,52.8,0
"2017-10-17 23:17:42+00",8.2,10.2,,54.3,-227,-289,8,1025.37,53,0
"2017-10-17 23:22:42+00",9.5,10.5,,54.4,-266,-335,-5,1025.43,53.2,0
"2017-10-17 23:27:42+00",8.9,11.9,,54.5,-219,-327,2,1025.41,53.3,0
"2017-10-17 23:32:42+00",8.5,9.5,,54.6,-197,-319,11,1025.44,53.5,0
"2017-10-17 23:37:42+00",7.4,8.4,,54.6,-194,-271,9,1025.39,53.7,0
"2017-10-17 23:42:42+00",6.9,8.9,,54.6,-158,-261,28,1025.35,53.6,0
"2017-10-17 23:47:42+00",7.2,9.2,,54.6,-161,-268,6,1025.34,53.5,0
"2017-10-17 23:52:42+00",8.3,10.3,,54.7,-225,-286,-1,1025.41,53.6,0
"2017-10-17 23:57:42+00",10.2,11.2,,54.9,-217,-385,-3,1025.37,53.8,0
